www.pogodaiklimat.ru

Погода и климат >> Архив погоды >> Россия >> Якутия >> Джарджан


ПОГОДА в Джарджане

  • Прогноз погоды в Джарджане
  • Монитор погоды в Джарджане
  • Климат города

АРХИВ ПОГОДЫ в Джарджане

Время (UTC), дата Ветер
(напр.,м/с)
 
Видим.   Явления Облачность Т
(С)
Тd
(С)
f
(%)
Тe
(С)
Тes
(С)
Комфортность P
(гПа)
Po
(гПа)
Тmin
(С)
Tmax
(С)
R
(мм)
R24
(мм)
S
(см)
09 14.10 Ю 1 50 км 10/0
[Ac und]
-3.8 -7.5 75 -6 -6 1022.8 1017.8
12 14.10 В 1 50 км 10/0
[Ac und]
-5.2 -7.7 83 -8 -8 1023.4 1018.4 -2.4
15 14.10 С 2 50 км 10/0
[Ac und]
-8.6 -10.0 90 -13 -13 1023.8 1018.7
18 14.10 С 2 50 км 10/0
[Ac und]
-9.8 -10.6 94 -14 -14 1024.3 1019.2
21 14.10 С 3 50 км 10/0
[Ac und]
-11.2 -11.8 95 -17 -17 1024.7 1019.6
00 15.10 С 1 50 км 10/0
[As op]
-12.6 -13.9 90 -15 -15 1025.4 1020.3 -12.8 25
03 15.10 С 1 50 км 10/0
[Cs]
-11.4 -12.7 90 -14 -13 1025.7 1020.6
06 15.10 штиль 0 50 км 10/0 600 м
[As op]
-8.1 -9.5 90 -9 -9 1026.1 1021.0
09 15.10 штиль 0 50 км 10/0 600 м
[As op]
-8.1 -9.5 90 -9 -9 1027.2 1022.1
12 15.10 штиль 0 50 км ясно -8.8 -10.3 89 -9 -9 1028.0 1022.9 -7.8
15 15.10 СВ 2 50 км 10/0
[Ac und]
-9.4 -10.6 91 -14 -14 1028.9 1023.8
18 15.10 С 3 50 км 10/0
[As op]
-10.2 -11.5 90 -16 -16 1029.7 1024.6
21 15.10 С 2 50 км 10/0
[As op]
-11.2 -12.5 90 -16 -16 1029.9 1024.8
03 16.10 С 2 50 км 10/0
[Ac As]
-7.4 -8.7 90 -12 -12 1030.4 1025.2
06 16.10 СВ 1 50 км 10/0
[Ac As]
-6.6 -8.2 88 -9 -9 1030.3 1025.2
09 16.10 штиль 0 50 км 10/0
[Ac As]
-6.0 -6 -6 1030.3 1025.2
12 16.10 штиль 0 50 км 10/0
[Ac As]
-6.4 -7.6 91 -7 -7 1030.3 1025.2 -5.8
18 16.10 С 1 50 км 10/0
[Ac As]
-8.2 -8.8 95 -11 -11 1028.1 1023.1
21 16.10 С 2 50 км 10/0
[As op]
-10.7 -11.3 95 -15 -15 1027.5 1022.4
00 17.10 штиль 0 50 км 10/0
[As op]
-11.6 -12.9 90 -12 -12 1026.9 1021.8 -11.6 25
03 17.10 штиль 0 50 км 10/0
[As op]
-10.8 -12.1 90 -11 -11 1026.3 1021.2
06 17.10 штиль 0 1000 м туман ?/? -9.2 -10.3 92 -10 -10 1025.9 1020.8
09 17.10 штиль 0 1000 м туман ?/? -9.8 -11.0 91 -10 -10 1025.8 1020.7
12 17.10 штиль 0 200 м туман ?/? -9.8 -11.0 91 -10 -10 1025.3 1020.2 -9.0
15 17.10 штиль 0 200 м туман ?/? -10.4 -11.0 95 -11 -11 1025.0 1019.9
18 17.10 штиль 0 20 км слабый снег {туман} 10/0
[As op]
-11.2 -11.8 95 -11 -11 1024.9 1019.8
21 17.10 штиль 0 20 км слабый снег 10/0
[As op]
-11.4 -12.0 95 -12 -12 1024.7 1019.6
00 18.10 штиль 0 20 км слабый снег 10/0
[As op]
-10.6 -11.2 95 -11 -11 1024.7 1019.6 -11.7 2 23
03 18.10 штиль 0 50 км {снег} 10/0
[As op]
-9.4 -10.1 95 -10 -10 1025.0 1019.9
06 18.10 штиль 0 50 км {снег} 10/0
[Ac und]
-8.6 -9.3 95 -9 -9 1025.3 1020.2
09 18.10 С 1 50 км 10/0
[Ac und]
-9.8 -10.6 94 -12 -12 1025.5 1020.4
12 18.10 СВ 1 50 км 10/0
[Ac und]
-10.2 -10.8 95 -13 -13 1025.6 1020.5 -8.3
15 18.10 СВ 1 50 км 10/0
[Ac und]
-10.4 -11.0 95 -13 -13 1025.4 1020.3
18 18.10 СВ 2 50 км 10/0
[Ac und]
-11.2 -11.8 95 -16 -16 1025.4 1020.3
21 18.10 СВ 1 50 км 10/0
[Ac und]
-12.2 -13.5 90 -14 -14 1025.7 1020.6
00 19.10 СВ 1 50 км 8/0
[Ac trans]
-15.6 -16.9 90 -18 -18 1026.0 1020.8 -15.6 21
03 19.10 СВ 1 50 км 8/0
[Ac trans]
-13.6 -14.9 90 -16 -16 1026.4 1021.2
06 19.10 СВ 1 50 км 6/0
[Ac trans]
-12.2 -13.5 90 -14 -14 1026.6 1021.5
09 19.10 СВ 2 50 км 3/0
[Ac trans]
-17.8 -19.7 85 -23 -23 1027.7 1022.4
12 19.10 СВ 2 50 км 3/0
[Ac trans]
-19.0 -20.9 85 -25 -25 1028.2 1022.9 -12.0
18 19.10 СВ 2 50 км ясно -21.2 -23.0 85 -27 -27 1029.2 1023.9
21 19.10 СВ 2 50 км ясно -20.4 -22.3 85 -26 -26 1029.7 1024.4
00 20.10 СВ 1 50 км 10/0
[As op]
-20.2 -22.1 85 -23 -23 1030.2 1024.9 -21.6 21
03 20.10 штиль 0 50 км 10/0
[Cs]
-17.6 -18.8 90 -18 -17 1030.2 1024.9
06 20.10 СВ 1 50 км 10/0
[Cs]
-16.0 -17.9 85 -19 -18 1029.8 1024.5
09 20.10 штиль 0 50 км 10/0
[Cs]
-16.4 -17.7 90 -16 -16 1029.7 1024.4
12 20.10 штиль 0 20 км 10/0
[As op]
-15.4 -16.7 90 -15 -15 1029.4 1024.1 -15.4 0.4
15 20.10 СВ 1 20 км слабый снег 10/0
[As op]
-15.6 -16.9 90 -18 -18 1028.5 1023.2
18 20.10 СВ 1 20 км слабый снег 10/0
[As op]
-13.8 -15.1 90 -16 -16 1028.1 1023.0
21 20.10 ЮВ 2 20 км слабый снег 10/0
[As op]
-13.2 -14.5 90 -18 -18 1027.2 1022.0
00 21.10 Ю 2 20 км слабый снег 10/0
[As op]
-11.9 -13.2 90 -16 -16 1026.6 1021.5 -15.8 0.5 22
03 21.10 Ю 2 20 км слабый снег 10/0
[As op]
-12.0 -13.3 90 -17 -16 1026.1 1021.0

 

Местоположение метеостанции Джарджан (Якутия, Россия): широта 68.73 долгота 124.00 высота над уровнем моря 39 м.

В архиве по умолчанию представлена погода в Джарджане за последнюю неделю. Архивные данные за месяц целиком и за предыдущие месяцы, начиная с января 2011 года, Вы можете получить, выбрав интересующий диапазон дат из раскрывающегося списка и нажав кнопку "Ввод!".

Внимание! Время в таблицах - всемирное. Для получения местного времени необходимо прибавить поправку, которая в Джарджане равна 9 ч.

Смотрите также архив погоды в соседних городах и на ближайших метеорологических станциях:

Погода в Жиганске (Якутия, Россия) (219 км)
Погода в Сухане (Якутия, Россия) (231 км)
Погода в Кюсюре (Якутия, Россия) (253 км)
Погода в Батагай-Алыте (Якутия, Россия) (284 км)
Погода в Тюмяти (Якутия, Россия) (355 км)
Погода в Тикси (Якутия, Россия) (367 км)
Погода в Бестяхской Звероферме (Якутия, Россия) (382 км)
Погода в Екюччю (Якутия, Россия) (387 км)
Погода в Верхоянске (Якутия, Россия) (409 км)
Погода на Мысе Быков (Якутия, Россия) (410 км)

Пояснения к столбцам:

Ветер - указаны скорость ветра в м/с - средняя за 10 мин, порывы в срок и между сроками (в фигурных скобках) и направление, откуда дует ветер: С - северный, СВ - северо-восточный, В - восточный, ЮВ - юго-восточный, Ю - южный, ЮЗ - юго-западный, З - западный, СЗ - северо-западный.
Видимость - горизонтальная дальность видимости в метрах или километрах. При видимости от 1 до 10 км при отсутствии осадков обычно наблюдается дымка, при ухудшении видимости до 1 км и менее - туман. В сухую погоду видимость может ухудшаться дымом, пылью или мглою.
Явления - указаны атмосферные явления, наблюдавшиеся в срок или в последний час перед сроком; фигурными скобками обозначены явления, наблюдавшиеся между сроками (за 1-3 часа до срока); квадратными скобками обозначены град или гололедные отложения с указанием их диаметра в мм.
Облачность - указаны через наклонную черту общая и нижняя облачность в баллах и высота нижней границы облаков в метрах; квадратными скобками обозначены формы облаков: Ci - перистые, Cs - перисто-слоистые, Cc - перисто-кучевые, Ac - высококучевые, As - высокослоистые, Sc - слоисто-кучевые, Ns - слоисто-дождевые, Cu - кучевые, Cb - кучево-дождевые. Подробнее классификацию облаков см. в Атласе облаков (PDF).
T - Температура воздуха - температура, измеренная на высоте 2 м над землей.
Td - Температура точки росы - температура, при понижении до которой содержащийся в воздухе водяной пар достигнет насыщения.
f - Относительная влажность воздуха - влажноcть воздуха, измеренная на высоте 2 м над землей.
Te - Эффективная температура - температура, которую ощущает одетый по сезону человек в тени. Характеристика душности погоды. При расчете учитывается влияние влажности воздуха и скорости ветра на теплоощущения человека.
Tes - Эффективная температура на солнце - температура, которую ощущает человек, с поправкой на солнечный нагрев. Характеристика знойности погоды. Зависит от высоты солнца над горизонтом, облачности и скорости ветра. Ночью, в пасмурную погоду, а также при ветре 12 м/с и более поправка равна нулю.
P - Атмосферное давление - приведенное к уровню моря атмосферное давление.
Po - Атмосферное давление - измеренное на уровне метеостанции атмосферное давление.
Tmin - Минимальная температура - минимум температуры воздуха на высоте 2 м над землей.
Tmax - Максимальная температура - максимум температуры воздуха на высоте 2 м над землей.
R - Количество осадков - Количество выпавших осадков за период времени, мм. При наведении курсора мыши на число - период времени, за который выпало указанное количество осадков.
R24 - Количество осадков - Количество выпавших осадков за 24 часа, мм.
S - Снежный покров - Высота снежного покрова, см. При наведении курсора мыши на число - состояние снежного покрова и степень покрытия местности в баллах.